FENGYUN 1C DEB

Satellite information

Favourite Embed

Satellite Type and Status

DEBRISIN ORBIT

Key statistics

Satellite FENGYUN 1C DEB at a glance.

Uptime

9499

Days in orbit

Revolutions

≈ 14.0

Per day

Orbit

SSO

Sun Synchronous Orbit

Inclination

98.9

Latest

Satellite identification and parameters

Extended collection of information and parameters for FENGYUN 1C DEB.

Object identification

Identified? True

Debris? True

Object name: FENGYUN 1C DEB

International designator: 1999-025BGQ

Object number (NORAD): 31094

Object ID (CCSDS): 31094

Country: PEOPLES REPUBLIC OF CHINA (PRC)

Current information (Y/N): Y

RCS size: SMALL

Orbital parameters

Period: 102.779 minutes

Inclination: 98.8835 deg

SMA: 7268.242 km

Apoapsis: 969.118 km

Periapsis: 811.095 km

RAAN: 3.8122 deg

Eccentricy: 0.0108708

Argument of periapsis: 292.2815 deg

Mean anomaly: 66.6853 deg

Mean motion: 14.01066365 rev/day

Mean motion (dot): 0.00002043 rev/day2

B* drag term: 0.0013219 1/REarth

Two-line elements (TLE)

Creation date: May 10, 2025, 5:27 p.m.

Reference frame: TEME

Reference center: EARTH

Epoch: May 9, 2025, 9:49 p.m. UTC

TLE line 0: 0 FENGYUN 1C DEB

TLE line 1: 1 31094U 99025BGQ 25129.90927862 .00002043 00000-0 13219-2 0 9991

TLE line 2: 2 31094 98.8835 3.8122 0108708 292.2815 66.6853 14.01066365925821

Live tracking on map

Real-time ground track for satellite FENGYUN 1C DEB.

In-orbit conjunctions

A list of the most updated potential collisions computed for object FENGYUN 1C DEB.

Target Orbit TCA Probability of collision Miss distance Type
FENGYUN 1C DEB SSO 2025-04-05 17:07:20 0.0001056092 106.0 (m) DEBRIS
SL-8 R/B LEO 2024-08-14 23:23:06 0.0002430863 305.0 (m) ROCKET BODY
METEOR 2-11 DEB LEO 2024-06-23 19:05:19 0.0009004827 161.0 (m) DEBRIS

Associated space launch

Chinese polar orbiting meteorological satellite

FENGYUN 1C DEB was lifted into orbit during the mission ‘Long March 4B | Feng Yun 1C’, on board a Long March 4B space rocket.

The launch took place on May 10, 1999, 1:33 a.m. from Launch Complex 7.

For more information about the launch, click the button.

Launch to space Long March 4B | Feng Yun 1C
Long March 4B | Feng Yun 1C

Agency: N/A

Status: Launch Successful

Launch date: May 10, 1999, 1:33 a.m. UTC

Rocket: Long March 4B

Launch pad: Launch Complex 7

Location: Taiyuan Satellite Launch Center, People's Republic of China

...

Latest news about this satellite

There are no fresh news available about this satellite. Check back as we update our databases every day.


Newsletter sign-up

Weekly statistics, charts and insights to help you stay on top of the space industry.